Location: Edinburgh
(55.9500°N, 3.1600°W)
Time: 17:42:01
(UTC+01:00)

Envisat - Pass Details

Date: 16 February 2019
Orbit: 764 x 766 km, 98.1° (Epoch: 22 October)

Event Time Altitude Azimuth Distance (km) Brightness Sun altitude
Rises 06:39:17 0° 23° (NNE) 3,246 6.4 -8.5°
Reaches altitude 10° 06:42:09 10° 39° (NE) 2,314 5.9 -8.1°
Maximum altitude 06:45:59 21° 88° (E) 1,669 6.0 -7.6°
Drops below altitude 10° 06:49:49 10° 137° (SE) 2,301 6.4 -7.1°
Sets 06:52:39 0° 153° (SSE) 3,222 6.9 -6.7°
